Location: Newark
(51.5033°N, 0.1199°W)
Time: 18:00:51
(UTC+00:00)

nSIGHT-1 - Visible Passes

Search period start: 17 October 2019 00:00
Search period end: 27 October 2019 00:00
Orbit: 337 x 343 km, 51.6° (Epoch: 16 October)

Date Brightness Start Highest point End Pass type
(mag) Time Alt. Az. Time Alt. Az. Time Alt. Az.
17 Oct ? 04:45:42 13° S 04:47:19 19° SE 04:49:27 10° E visible
18 Oct ? 05:07:28 17° SW 05:09:20 36° SSE 05:12:02 10° E visible
19 Oct ? 03:57:43 16° ESE 03:57:43 16° ESE 03:58:48 10° E visible
19 Oct ? 05:29:04 14° WSW 05:31:25 65° SSE 05:34:17 10° E visible
20 Oct ? 04:19:11 31° SE 04:19:11 31° SE 04:21:18 10° E visible
20 Oct ? 05:50:38 10° W 05:53:32 90° NNE 05:56:25 10° E visible
21 Oct ? 04:40:33 64° SSE 04:40:35 64° SSE 04:43:26 10° E visible
22 Oct ? 05:01:48 45° W 05:02:33 89° SSW 05:05:28 10° E visible
23 Oct ? 03:51:39 16° E 03:51:39 16° E 03:52:21 10° E visible
23 Oct ? 05:22:58 24° W 05:24:32 85° N 05:27:25 10° E visible
24 Oct ? 04:12:45 27° E 04:12:45 27° E 04:14:15 10° E visible
24 Oct ? 05:44:04 14° W 05:46:25 78° SSW 05:49:18 10° ESE visible
25 Oct ? 04:33:48 52° E 04:33:48 52° E 04:36:06 10° E visible
25 Oct ? 06:05:23 10° W 06:08:11 47° SSW 06:10:57 10° SE visible
26 Oct ? 04:54:49 74° WSW 04:54:59 79° S 04:57:52 10° ESE visible
